Regional Weather Roundup
Issued by NWS

Home | Current Version | Previous Version | Text Only | Print | Product List | Glossary On
Versions: 1 2 3 4 5 6 7 8 9 10 11 12 13 14 15 16 17 18 19 20 21 22 23 24 25 26 27 28 29 30 31 32 33 34 35 36 37 38 39 40 41 42 43 44 45 46 47 48 49 50
000
ASUS43 KOAX 280602
RWRNE

WEATHER ROUNDUP FOR NEBRASKA
NATIONAL WEATHER SERVICE OMAHA NE
1200 AM CST TUE FEB 28 2017

NOTES: SATELLITE DATA IS BEING USED TO AUGMENT CLOUD COVER ABOVE
       12000 FEET.
       "FAIR" INDICATES FEW OR NO CLOUDS BELOW 12,000 FEET WITH NO
       SIGNIFICANT WEATHER AND/OR OBSTRUCTIONS TO VISIBILITY.

  * THESE STATIONS DO NOT REPORT WEATHER SUCH AS RAIN...SNOW OR FOG.

NEZ001>004-019>022-054>056-280700-
NEBRASKA PANHANDLE

CITY           SKY/WX    TMP DP  RH WIND       PRES   REMARKS
SCOTTSBLUFF    CLOUDY    28  25  88 NW7       29.69S WCI  21
6HR MIN TEMP:  26; 6HR MAX TEMP:  38;

ALLIANCE       PTCLDY    22  18  85 NW15      29.66F WCI   9
6HR MIN TEMP:  20; 6HR MAX TEMP:  33;

CHADRON        PTCLDY    26  24  92 W5        29.68F FOG     WCI  20
6HR MIN TEMP:  26; 6HR MAX TEMP:  34; 6HR PCP: TRACE;

KIMBALL        CLOUDY    28  26  91 N6        29.68R WCI  22
SIDNEY         CLEAR     27  23  85 NW14      29.67S WCI  16
6HR MIN TEMP:  26; 6HR MAX TEMP:  47;

$$

NEZ057>060-069>072-079>082-280700-
SOUTHWEST NEBRASKA

CITY           SKY/WX    TMP DP  RH WIND       PRES   REMARKS
NORTH PLATTE   CLOUDY    36  24  62 N9        29.57R WCI  29
6HR MIN TEMP:  31; 6HR MAX TEMP:  50;

IMPERIAL       CLOUDY    35  25  66 NW17      29.59R WCI  25
6HR MIN TEMP:  35; 6HR MAX TEMP:  51;

LEXINGTON      CLOUDY    37  32  79 SE9       29.54F WCI  31
MCCOOK         CLOUDY    47  19  33 SW14      29.55R
6HR MIN TEMP:  43; 6HR MAX TEMP:  54;

OGALLALA       CLOUDY    34  25  67 N15       29.61R WCI  25
$$

NEZ005>010-023>029-035>040-094-280700-
NORTH CENTRAL NEBRASKA

CITY           SKY/WX    TMP DP  RH WIND       PRES   REMARKS
VALENTINE      MOCLDY    34  27  75 N10       29.65F WCI  26
6HR MIN TEMP:  33; 6HR MAX TEMP:  40;

AINSWORTH      CLOUDY    31  30  94 NW8       29.64F WCI  24
BROKEN BOW     CLOUDY    35  29  78 E5        29.56S WCI  31
6HR MIN TEMP:  27; 6HR MAX TEMP:  48;

O`NEILL        CLOUDY    33  32  97 NW8       29.64S WCI  25
ORD            CLOUDY    35  33  92 CALM      29.58F FOG
6HR MIN TEMP:  34; 6HR MAX TEMP:  50;

THEDFORD       CLOUDY    33  29  85 N5        29.62F WCI  29
$$

NEZ041-046>049-061>064-073>077-083>087-280700-
SOUTH CENTRAL NEBRASKA

CITY           SKY/WX    TMP DP  RH WIND       PRES   REMARKS
GRAND ISLAND   CLOUDY    43  39  86 SE13      29.58F
6HR MIN TEMP:  40; 6HR MAX TEMP:  52;

AURORA         CLOUDY    40  37  89 SE8       29.59F WCI  35
HASTINGS       CLOUDY    44  38  79 SE12      29.58F
6HR MIN TEMP:  44; 6HR MAX TEMP:  53;

HEBRON         CLOUDY    39  37  92 SE3       29.59F
HOLDREGE       CLOUDY    38  35  89 CALM      29.56F
KEARNEY *      CLOUDY    39  34  81 SE9       29.56F WCI  33
$$

NEZ011>018-030>034-042>045-280700-
NORTHEAST NEBRASKA

CITY           SKY/WX    TMP DP  RH WIND       PRES   REMARKS
NORFOLK        CLOUDY    37  30  75 E5        29.62F WCI  33
6HR MIN TEMP:  35; 6HR MAX TEMP:  45;

ALBION         CLOUDY    37  33  85 CALM      29.60F
BLAIR          CLOUDY    43  33  68 E8        29.66F
FREMONT        CLOUDY    40  32  73 SE6       29.65F
TEKAMAH        CLOUDY    36  30  79 S3        29.67F
6HR MIN TEMP:  35; 6HR MAX TEMP:  45;

WAYNE          CLOUDY    34  29  82 CALM      29.66F
$$

NEZ050>053-065>068-078-088>093-280700-
SOUTHEAST NEBRASKA

CITY           SKY/WX    TMP DP  RH WIND       PRES   REMARKS
LINCOLN        CLOUDY    38  33  82 CALM      29.64F
6HR MIN TEMP:  35; 6HR MAX TEMP:  52;

OMAHA EPPLEY   CLOUDY    38  30  73 CALM      29.68F
6HR MIN TEMP:  37; 6HR MAX TEMP:  52;

BEATRICE       PTCLDY    46  42  85 SE7       29.63F
FALLS CITY     CLOUDY    50  43  77 SE8       29.68F
6HR MIN TEMP:  46; 6HR MAX TEMP:  57;

NEBRASKA CITY  CLOUDY    50  35  57 SE6       29.68F
PLATTSMOUTH    CLOUDY    47  35  63 SE8       29.67F
$$

NEZ044-045-051>053-067-280700-
OMAHA AREA

CITY           SKY/WX    TMP DP  RH WIND       PRES   REMARKS
OMAHA EPPLEY   CLOUDY    38  30  73 CALM      29.68F
6HR MIN TEMP:  37; 6HR MAX TEMP:  52;

BLAIR          CLOUDY    43  33  68 E8        29.66F
FREMONT        CLOUDY    40  32  73 SE6       29.65F
MILLARD        MOCLDY    41  35  79 CALM      29.67F
OFFUTT AFB     CLOUDY    40  32  74 SE3       29.67F
PLATTSMOUTH    CLOUDY    47  35  63 SE8       29.67F
WAHOO          FAIR      37  32  82 E6        29.64F WCI  32
$$




USA.gov is the U.S. government's official web portal to all federal, state and local government web resources and services.